This is the latest recevied weather packets stored in our database for station/object LA9UTA-13. If no packets are shown the sender has not sent any weather packets the latest 10 day(s).
| Time | Temp. | Humidity | Pressure | Rain* | Wind** | Luminosity | Snow |
|---|---|---|---|---|---|---|---|
| 1777889881 | 12.22° C | 31% | 1003.9 hPa | 0 mm | - | 560 W/m² | - |
| 1777888682 | 11.67° C | 36% | 1004 hPa | 0 mm | - | 555 W/m² | - |
| 1777887482 | 10.56° C | 39% | 1004.1 hPa | 0 mm | - | 522 W/m² | - |
| 1777886282 | 10.56° C | 40% | 1004.1 hPa | 0 mm | - | 493 W/m² | - |
| 1777885082 | 10° C | 43% | 1004.2 hPa | 0 mm | - | 303 W/m² | - |
| 1777883881 | 10° C | 43% | 1004.1 hPa | 0 mm | - | 192 W/m² | - |
| 1777882682 | 10° C | 45% | 1004.2 hPa | 0 mm | - | 417 W/m² | - |
| 1777881482 | 9.44° C | 45% | 1004.2 hPa | 0 mm | - | 394 W/m² | - |
| 1777880820 | 8.33° C | 49% | 1004.3 hPa | 0 mm | - | 221 W/m² | - |
| 1777880281 | 9.44° C | 46% | 1004.2 hPa | 0 mm | - | 304 W/m² | - |
| 1777879082 | 8.33° C | 49% | 1004.3 hPa | 0 mm | - | 221 W/m² | - |
| 1777877881 | 8.33° C | 51% | 1004.3 hPa | 0 mm | - | 146 W/m² | - |
| 1777876681 | 8.33° C | 51% | 1004.3 hPa | 0 mm | - | 125 W/m² | - |
| 1777875482 | 8.33° C | 56% | 1004.3 hPa | 0 mm | - | 102 W/m² | - |
| 1777873082 | 9.44° C | 69% | 1004.2 hPa | 0 mm | - | 127 W/m² | - |
| 1777871881 | 8.33° C | 77% | 1004.3 hPa | 0 mm | - | 111 W/m² | - |
| 1777869482 | 5.56° C | 88% | 1004.6 hPa | 0 mm | - | 38 W/m² | - |
| 1777868281 | 4.44° C | 91% | 1004.7 hPa | 0 mm | - | 27 W/m² | - |
| 1777867081 | 4.44° C | 92% | 1004.7 hPa | 0 mm | - | 16 W/m² | - |
| 1777865881 | 5° C | 91% | 1004.6 hPa | 0 mm | - | 11 W/m² | - |
| 1777864681 | 6.11° C | 92% | 1004.5 hPa | 0 mm | - | 4 W/m² | - |
| 1777863481 | 6.67° C | 91% | 1004.5 hPa | 0 mm | - | 1 W/m² | - |
| 1777862281 | 6.67° C | 91% | 1004.5 hPa | 0 mm | - | 0 W/m² | - |
| 1777861082 | 6.67° C | 90% | 1005.5 hPa | 0 mm | - | 0 W/m² | - |
| 1777859881 | 7.22° C | 89% | 1005.4 hPa | 0 mm | - | 0 W/m² | - |
* Rain latest hour (hover to see other rain measurements)
** Current wind speed in m/s (hover to see current wind gust speed)